Weather History for North Myrtle Beach, SC

Change the Weather History Date:

Wednesday, December 21, 2011

  Actual Average Record
Temperature  
Mean Temperature 58 °F 48 °F  
Max Temperature 67 °F 57 °F 73 °F (2013)
Min Temperature 49 °F 38 °F 17 °F (1954)
Degree Days  
Heating Degree Days 7 18  
Month to date heating degree days 268 324  
Since 1 July heating degree days 615 685  
Cooling Degree Days 0 0  
Month to date cooling degree days 0 0  
Year to date cooling degree days 2203 1899  
Growing Degree Days 7 (Base 50)    
Moisture  
Dew Point 56 °F    
Average Humidity 94    
Maximum Humidity 100    
Minimum Humidity 87    
Precipitation  
Precipitation 0.10 in 0.11 in 0.95 in (2007)
Month to date precipitation 0.23 2.48  
Year to date precipitation 32.68 51.03  
Sea Level Pressure  
Sea Level Pressure 30.14 in    
Wind  
Wind Speed 6 mph (SW)    
Max Wind Speed 18 mph    
Max Gust Speed 24 mph    
Visibility 6 miles    
Events Fog , Rain    
T = Trace of Precipitation, MM = Missing Value Source: NWS Daily Summary

Daily Weather History Graph

Daily Weather History Graph

Search for Another Location

Airport:

Trip Planner

Search our weather history database for the weather conditions in past years. The results will help you decide how hot, cold, wet, or windy it might be!

Date:

Astronomy

Dec. 21, 2011 Rise Set
Actual Time 7:15 AM EST 5:10 PM EST
Civil Twilight 6:48 AM EST 5:37 PM EST
Nautical Twilight 6:16 AM EST 6:09 PM EST
Astronomical Twilight 5:46 AM EST 6:39 PM EST
Moon 3:49 AM EST (12/21) 2:25 PM EST (12/21)
Length of Visible Light 10h 49m
Length of Day
9h 54m
Waning Crescent, 12% of the Moon is Illuminated
Dec 21
Waning Crescent
Dec 24
New
Jan 1
First Quarter
Jan 9
Full
Jan 16
Last Quarter

Hourly Weather History & Observations

Time (EST) Temp. Dew Point Humidity Pressure Visibility Wind Dir Wind Speed Gust Speed Precip Events Conditions
12:02 AM 51.8 °F 51.8 °F 100% 30.19 in 2.5 mi Calm Calm - N/A   Partly Cloudy
12:09 AM 51.8 °F 50.0 °F 94% 30.19 in 3.0 mi Calm Calm - N/A   Clear
12:17 AM 51.8 °F 51.8 °F 100% 30.19 in 2.5 mi Calm Calm - N/A   Clear
12:25 AM 51.8 °F 51.8 °F 100% 30.19 in 3.0 mi Calm Calm - N/A   Clear
12:32 AM 51.8 °F 50.0 °F 94% 30.18 in 2.5 mi Calm Calm - N/A   Clear
12:41 AM 51.8 °F 50.0 °F 94% 30.18 in 8.0 mi Calm Calm - N/A   Clear
12:53 AM 50.0 °F 50.0 °F 100% 30.18 in 3.0 mi Calm Calm - N/A   Partly Cloudy
1:04 AM 51.8 °F 50.0 °F 94% 30.17 in 2.5 mi Calm Calm - N/A   Mostly Cloudy
1:17 AM 51.8 °F 50.0 °F 94% 30.17 in 4.0 mi Calm Calm - N/A   Mostly Cloudy
1:21 AM 50.0 °F 50.0 °F 100% 30.17 in 1.5 mi Calm Calm - N/A   Mostly Cloudy
1:29 AM 48.2 °F 48.2 °F 100% 30.17 in 0.5 mi Calm Calm - N/A Fog Fog
1:33 AM 48.2 °F 48.2 °F 100% 30.17 in 0.5 mi Calm Calm - N/A Fog Fog
1:39 AM 50.0 °F 48.2 °F 94% 30.17 in 2.5 mi Calm Calm - N/A   Mostly Cloudy
1:46 AM 51.8 °F 50.0 °F 94% 30.17 in 8.0 mi Calm Calm - N/A   Mostly Cloudy
1:53 AM 51.1 °F 50.0 °F 96% 30.17 in 8.0 mi Calm Calm - N/A   Scattered Clouds
2:53 AM 51.1 °F 51.1 °F 100% 30.16 in 9.0 mi Calm Calm - N/A   Mostly Cloudy
3:53 AM 53.1 °F 52.0 °F 96% 30.14 in 10.0 mi Calm Calm - N/A   Mostly Cloudy
4:53 AM 52.0 °F 52.0 °F 100% 30.14 in 7.0 mi Calm Calm - N/A   Scattered Clouds
5:53 AM 54.0 °F 53.1 °F 97% 30.14 in 10.0 mi Calm Calm - N/A   Overcast
6:53 AM 59.0 °F 57.0 °F 93% 30.14 in 8.0 mi Calm Calm - N/A   Overcast
7:53 AM 62.1 °F 60.1 °F 93% 30.14 in 7.0 mi SSW 5.8 mph - N/A   Overcast
8:53 AM 64.9 °F 61.0 °F 87% 30.15 in 10.0 mi SSW 6.9 mph - N/A   Overcast
9:53 AM 64.9 °F 60.1 °F 84% 30.15 in 10.0 mi SSW 8.1 mph - N/A   Overcast
10:53 AM 66.0 °F 63.0 °F 90% 30.16 in 9.0 mi WSW 9.2 mph - 0.00 in   Overcast
11:14 AM 64.4 °F 62.6 °F 94% 30.15 in 1.8 mi WSW 10.4 mph - 0.01 in Rain Light Rain
11:25 AM 66.2 °F 62.6 °F 88% 30.14 in 2.0 mi SW 11.5 mph - 0.02 in Rain Light Rain
11:37 AM 64.4 °F 62.6 °F 94% 30.14 in 1.5 mi SW 15.0 mph 21.9 mph 0.04 in Rain Light Rain
11:51 AM 64.4 °F 62.6 °F 94% 30.13 in 3.0 mi SW 16.1 mph - 0.06 in Rain Light Rain
11:53 AM 64.9 °F 63.0 °F 93% 30.14 in 3.0 mi SW 15.0 mph - 0.06 in Rain Light Rain
11:58 AM 64.4 °F 62.6 °F 94% 30.13 in 1.8 mi SW 16.1 mph - 0.01 in Rain Light Rain
12:06 PM 64.4 °F 62.6 °F 94% 30.12 in 1.5 mi SW 17.3 mph 23.0 mph 0.01 in Rain Light Rain
12:22 PM 64.4 °F 62.6 °F 94% 30.11 in 5.0 mi SW 12.7 mph 24.2 mph 0.02 in Rain Light Rain
12:53 PM 64.0 °F 62.1 °F 93% 30.09 in 10.0 mi SW 17.3 mph 23.0 mph 0.03 in Rain Light Rain
2:53 PM 62.1 °F 60.1 °F 93% 30.06 in 6.0 mi SSW 9.2 mph - 0.00 in   Mostly Cloudy
3:53 PM 61.0 °F 59.0 °F 93% 30.05 in 5.0 mi SSW 9.2 mph - 0.01 in   Mostly Cloudy
4:53 PM 61.0 °F 59.0 °F 93% 30.07 in 8.0 mi SW 5.8 mph - N/A   Mostly Cloudy
5:53 PM 61.0 °F 59.0 °F 93% 30.08 in 9.0 mi Calm Calm - 0.00 in   Overcast
6:53 PM 60.1 °F 57.9 °F 93% 30.09 in 7.0 mi Calm Calm - N/A   Overcast
7:53 PM 59.0 °F 57.0 °F 93% 30.10 in 8.0 mi South 3.5 mph - N/A   Scattered Clouds
8:53 PM 61.0 °F 57.9 °F 90% 30.10 in 10.0 mi SSW 8.1 mph - N/A   Overcast
9:53 PM 63.0 °F 59.0 °F 87% 30.09 in 10.0 mi SW 11.5 mph - N/A   Mostly Cloudy
10:53 PM 62.1 °F 59.0 °F 90% 30.09 in 10.0 mi SW 11.5 mph - 0.00 in   Overcast
11:53 PM 61.0 °F 59.0 °F 93% 30.09 in 10.0 mi SW 11.5 mph - N/A   Mostly Cloudy